Location: Chmeln�
(49.6483°N, 14.9871°E)
Time: 09:59:11
(UTC+00:00)

Lacrosse 5 rocket - Visible Passes

Search period start: 17 January 2021 00:00
Search period end: 27 January 2021 00:00
Orbit: 461 x 635 km, 57.0° (Epoch: 17 January)

Date Brightness Start Highest point End Pass type
(mag) Time Alt. Az. Time Alt. Az. Time Alt. Az.
17 Jan 3.1 03:58:44 25° NE 03:58:44 25° NE 04:01:05 10° ENE visible
17 Jan 1.3 05:34:21 17° NW 05:37:19 67° NNE 05:41:02 10° ESE visible
18 Jan 3.1 03:53:03 25° NE 03:53:03 25° NE 03:55:18 10° ENE visible
18 Jan 1.1 05:28:41 19° NW 05:31:24 82° NNE 05:35:08 10° ESE visible
19 Jan 3.2 03:47:24 26° NE 03:47:24 26° NE 03:49:32 10° E visible
19 Jan 1.1 05:23:02 22° WNW 05:25:28 81° SW 05:29:11 10° SE visible
20 Jan 3.3 03:41:48 25° ENE 03:41:48 25° ENE 03:43:46 10° E visible
20 Jan 1.2 05:17:26 25° WNW 05:19:31 64° SW 05:23:12 10° SE visible
21 Jan 3.5 03:36:15 23° ENE 03:36:15 23° ENE 03:37:58 10° E visible
21 Jan 1.4 05:11:53 28° WNW 05:13:32 50° SW 05:17:09 10° SE visible
22 Jan 3.6 03:30:45 21° E 03:30:45 21° E 03:32:10 10° E visible
22 Jan 1.7 05:06:23 30° W 05:07:33 39° SW 05:11:02 10° SSE visible
23 Jan 3.9 03:25:19 17° ESE 03:25:19 17° ESE 03:26:20 10° ESE visible
23 Jan 2.0 05:00:58 29° WSW 05:01:32 30° SW 05:04:50 10° SSE visible
24 Jan 4.1 03:19:59 13° ESE 03:19:59 13° ESE 03:20:28 10° ESE visible
24 Jan 2.4 04:55:38 24° SW 04:55:38 24° SW 04:58:32 10° S visible
25 Jan 3.0 04:50:23 17° SSW 04:50:23 17° SSW 04:52:05 10° S visible
26 Jan 3.6 04:45:14 11° SSW 04:45:14 11° SSW 04:45:27 10° SSW visible
